[[{"header":{"parameterUnit":"m.s-1","parameterCategory":1,"la1":30.2991,"la2":30.254,"lo1":-89.0895,"lo2":-89.0444,"dy":0.0017,"dx":0.0017,"nx":28,"ny":28,"refTime":"2025-06-08T21:00:00:Z","depth":0,"parameterNumber":2,"parameterNumberName":"U-component_of_WINDS"},"data":[0,0,0,0,0,0,0,0,0,0,0,0,0,0,0,0,0,0,0,0,0,0,0,0,0,0,0,0,0,0,0,0,0,0,0,0,0,0,0,0,0,0,0,0,0,0,0,0,0,0,0,0,0,0,0,0,0,0,4.6345,4.6346,0,4.6416,4.6417,4.6418,4.6406,4.6405,4.6403,4.6402,4.6478,4.6481,4.6484,0,0,0,0,0,0,0,0,0,0,0,0,0,4.6202,4.6205,4.6345,4.6346,4.6347,4.6416,4.6417,4.6418,4.6406,4.6405,4.6403,4.6402,4.6477,4.648,4.6484,0,0,0,0,0,0,0,0,0,0,0,0,0,4.6268,4.6206,4.6345,4.6349,4.635,4.6416,4.6417,4.6418,4.6407,4.6405,4.6403,4.6401,4.6475,4.648,4.6485,4.6551,0,0,4.6499,4.6501,0,0,0,0,0,0,0,0,4.6264,4.6273,4.6348,4.6349,4.635,4.64,4.6394,4.6463,4.6407,4.6385,4.6402,4.64,4.6454,4.646,4.6477,4.6555,4.6558,4.6499,4.6502,4.6504,4.6506,0,0,0,0,0,0,0,4.626,4.627,4.6373,4.6349,4.635,4.6349,4.6356,4.6407,4.6429,4.6387,4.6386,4.6395,4.6454,4.6473,4.6479,4.6559,4.6499,4.6504,4.6506,4.6508,4.6696,4.6698,0,0,0,0,0,0,4.6253,4.6266,4.6371,4.6375,4.6302,4.6353,4.6361,4.6386,4.6428,4.6433,4.6396,4.6394,4.6466,4.6474,4.6482,4.6563,4.6504,4.6509,4.6512,4.6694,4.6696,4.6699,0,0,0,0,0,0,4.625,4.6263,4.6368,4.6321,4.6334,4.6357,4.6386,4.6389,4.6407,4.6435,4.644,4.6411,4.6465,4.6475,4.6534,4.6565,4.6511,4.6515,4.6691,4.6695,4.6698,4.6725,0,0,0,0,0,0,4.6246,4.6262,4.6286,4.6321,4.6337,4.6418,4.6388,4.6391,4.6415,4.6413,4.6451,4.6455,4.6464,4.6527,4.6539,4.6571,4.6519,4.6689,4.6693,4.6697,4.6722,4.6729,4.6735,0,0,0,0,0,4.6241,4.6292,4.6288,4.63,4.6368,4.642,4.6429,4.6437,4.6418,4.6443,4.6462,4.6454,4.656,4.6533,4.6546,4.658,4.6687,4.6692,4.6696,4.6719,4.6728,4.6735,0,0,0,0,0,0,4.626,4.6296,4.6292,4.6355,4.6385,4.6418,4.645,4.6446,4.6482,4.6479,4.6488,4.6497,4.6557,4.6575,4.6544,4.6648,4.6621,4.6629,4.6633,4.6642,4.6649,4.6643,4.6523,0,0,0,0,0,4.6271,4.631,4.634,4.6393,4.6408,4.6427,4.645,4.6454,4.6485,4.6497,4.652,4.6551,4.6592,4.6618,4.6657,4.6725,4.6733,4.6755,4.6762,4.6767,4.6773,4.6811,4.6821,4.6715,4.6714,4.6714,0,0,4.6296,4.632,4.6344,4.6397,4.6421,4.6461,4.6437,4.6481,4.6512,4.6504,4.6561,4.6579,4.6615,4.6679,4.6708,4.6695,4.6805,4.6773,4.6777,4.6781,4.6817,4.6827,4.6836,4.6718,4.6717,4.6717,0,0,4.636,4.6382,4.6429,4.6453,4.6489,4.6501,4.6512,4.6547,4.6558,4.6615,4.6611,4.6648,4.6718,4.6743,4.6766,4.6842,4.6837,4.6855,4.689,4.6927,4.6935,4.6943,4.697,4.698,4.6861,4.6861,4.6861,0,4.6385,4.6446,4.6454,4.6499,4.6523,4.6518,4.6566,4.6589,4.6636,4.6653,4.6638,4.6726,4.675,4.682,4.6838,4.6857,4.687,4.685,4.6933,4.6941,4.6948,4.6974,4.6984,4.6863,4.6863,4.6863,4.6863,0,4.6476,4.6518,4.6552,4.6596,4.6624,4.6671,4.6687,4.6714,4.6717,4.6731,4.679,4.6819,4.6863,4.6881,4.6883,4.6952,4.6943,4.6931,4.6904,4.696,4.6985,4.6995,4.6866,4.6865,4.6865,4.6864,0,0,4.6552,4.6602,4.6614,4.6634,4.6674,4.6707,4.6755,4.6798,4.6821,4.6855,4.6894,4.6954,4.6943,4.6969,4.6975,4.7007,4.7066,4.6991,4.6992,4.7004,4.7144,4.7152,4.7163,4.7063,4.7065,4.7067,4.7141,0,4.662,4.6701,4.6711,4.6784,4.6823,4.682,4.6861,4.6891,4.6906,4.6943,4.696,4.7002,4.6985,4.7,4.7033,4.7052,4.7094,4.7047,4.7101,4.7103,4.7091,4.7176,4.7185,4.7253,4.715,4.7152,4.7153,0,4.6709,4.6745,4.6821,4.6857,4.6874,4.691,4.6951,4.6986,4.702,4.7029,4.7058,4.706,4.711,4.7082,4.7151,4.7119,4.7142,4.7155,4.7158,4.7163,4.7131,4.7182,4.7275,4.7284,4.7169,4.7167,4.7166,0,4.6757,4.6824,4.6879,4.6897,4.6939,4.6965,4.6984,4.7016,4.7042,4.7079,4.7096,4.7138,4.7161,4.7194,4.7208,4.7187,4.7277,4.725,4.7286,4.7286,4.7304,4.7302,4.74,4.732,4.732,4.732,4.732,0,4.6831,4.6878,4.6901,4.6934,4.6987,4.6999,4.7052,4.707,4.7099,4.7137,4.7138,4.7173,4.719,4.7229,4.724,4.7296,4.7307,4.7316,4.7318,4.7315,4.7314,4.7329,4.7325,4.7323,4.7322,4.7321,4.7321,0,4.6893,4.691,4.6969,4.7005,4.7015,4.7053,4.7084,4.7117,4.7133,4.7181,4.7193,4.7218,4.7263,4.7281,4.7337,4.7345,4.7409,4.7408,4.7397,4.7397,4.7432,4.7428,4.7543,4.7558,4.7469,4.747,4.747,0,4.6938,4.6974,4.7014,4.704,4.7059,4.71,4.7127,4.714,4.7168,4.721,4.7239,4.7284,4.7321,4.7395,4.7418,4.7462,4.7461,4.7498,4.7468,4.7464,4.7461,4.7458,4.7462,4.7504,4.7504,4.7505,4.7506,0,4.7017,4.7024,4.7062,4.7103,4.7135,4.7168,4.72,4.7221,4.724,4.7271,4.7318,4.7347,4.7404,4.745,4.7494,4.7515,4.7514,4.7516,4.7526,4.7523,4.7515,4.7519,4.7412,4.7513,4.7512,4.7511,4.7511,4.7511,4.7072,4.7104,4.7137,4.718,4.7206,4.7236,4.7269,4.7289,4.7328,4.7375,4.7382,4.7432,4.7467,4.7526,4.755,4.759,4.758,4.7595,4.7599,4.7602,4.7604,4.7509,4.7598,4.7598,4.7598,4.7598,4.7597,0,4.7151,4.7172,4.7211,4.7256,4.729,4.7286,4.7322,4.7351,4.7395,4.7427,4.7464,4.7518,4.7562,4.759,4.7635,4.7662,4.7663,4.7673,4.7671,4.7676,4.7611,4.7597,4.7672,4.7672,4.7672,4.7672,4.7672,4.7672,4.7195,4.7249,4.7261,4.7329,4.735,4.7399,4.742,4.7448,4.7474,4.7534,4.7571,4.7589,4.762,4.7667,4.7708,4.7716,4.7732,4.7743,4.775,4.7688,4.768,4.7673,4.766,4.7747,4.7747,4.7811,4.7812,4.7812]},{"header":{"parameterUnit":"m.s-1","parameterCategory":1,"la1":30.2991,"la2":30.254,"lo1":-89.0895,"lo2":-89.0444,"dy":0.0017,"dx":0.0017,"nx":28,"ny":28,"refTime":"2025-06-08T21:00:00:Z","depth":0,"parameterNumber":3,"parameterNumberName":"V-component_of_WINDS"},"data":[0,0,0,0,0,0,0,0,0,0,0,0,0,0,0,0,0,0,0,0,0,0,0,0,0,0,0,0,0,0,0,0,0,0,0,0,0,0,0,0,0,0,0,0,0,0,0,0,0,0,0,0,0,0,0,0,0,0,1.7419,1.7419,0,1.7447,1.7448,1.7448,1.7446,1.7446,1.7446,1.7445,1.7474,1.7475,1.7477,0,0,0,0,0,0,0,0,0,0,0,0,0,1.7362,1.7363,1.7418,1.7419,1.7419,1.7447,1.7448,1.7448,1.7446,1.7446,1.7445,1.7445,1.7474,1.7475,1.7477,0,0,0,0,0,0,0,0,0,0,0,0,0,1.7388,1.7363,1.7418,1.7422,1.7422,1.7447,1.7448,1.7448,1.7447,1.7446,1.7445,1.7445,1.7473,1.7475,1.7477,1.75,0,0,1.7482,1.7483,0,0,0,0,0,0,0,0,1.7386,1.739,1.7421,1.7422,1.7422,1.7443,1.7438,1.7465,1.7447,1.7437,1.7445,1.7444,1.7464,1.7467,1.7473,1.7501,1.7502,1.7482,1.7483,1.7484,1.7485,0,0,0,0,0,0,0,1.7385,1.7389,1.743,1.7421,1.7422,1.7422,1.7425,1.7443,1.7454,1.7438,1.7438,1.7442,1.7464,1.7472,1.7474,1.7503,1.7482,1.7484,1.7485,1.7486,1.755,1.7551,0,0,0,0,0,0,1.7382,1.7387,1.7429,1.7431,1.7403,1.7423,1.7427,1.7437,1.7454,1.7456,1.7442,1.7441,1.7469,1.7472,1.7475,1.7502,1.7484,1.7486,1.7487,1.7549,1.755,1.7551,0,0,0,0,0,0,1.7381,1.7386,1.7428,1.7409,1.7414,1.7425,1.7436,1.7438,1.7445,1.7457,1.7458,1.7448,1.7469,1.7473,1.7493,1.7503,1.7487,1.7488,1.7548,1.7549,1.755,1.7558,0,0,0,0,0,0,1.7379,1.7385,1.7395,1.7409,1.7415,1.7446,1.7437,1.7439,1.7448,1.7447,1.7462,1.7464,1.7469,1.7491,1.7495,1.7505,1.7489,1.7548,1.7549,1.755,1.7557,1.7559,1.7561,0,0,0,0,0,1.7377,1.7396,1.7395,1.74,1.7427,1.7447,1.745,1.7455,1.7449,1.7458,1.7465,1.7464,1.7502,1.7493,1.7498,1.7509,1.7547,1.7549,1.755,1.7556,1.7558,1.7561,0,0,0,0,0,0,1.7382,1.7398,1.7397,1.7421,1.7432,1.7446,1.7458,1.7458,1.7471,1.747,1.7475,1.7478,1.7499,1.7506,1.7496,1.7531,1.7523,1.7526,1.7526,1.7529,1.7531,1.7528,1.7491,0,0,0,0,0,1.7386,1.7401,1.7413,1.7433,1.7439,1.7447,1.7456,1.7459,1.7471,1.7476,1.7485,1.7496,1.7511,1.752,1.7534,1.7558,1.756,1.7567,1.7569,1.7571,1.7573,1.7585,1.7588,1.7556,1.7556,1.7556,0,0,1.7394,1.7404,1.7413,1.7434,1.7444,1.7458,1.7452,1.7468,1.7479,1.7478,1.7498,1.7505,1.7518,1.754,1.755,1.7547,1.7583,1.7573,1.7574,1.7575,1.7587,1.759,1.7593,1.7557,1.7557,1.7556,0,0,1.7416,1.7426,1.7442,1.7452,1.7466,1.7471,1.7475,1.7489,1.7494,1.7514,1.7513,1.7526,1.7551,1.756,1.7568,1.7593,1.7592,1.7597,1.7608,1.762,1.7622,1.7624,1.7632,1.7635,1.76,1.76,1.76,0,1.7424,1.7447,1.7451,1.7467,1.7476,1.7476,1.7493,1.7502,1.752,1.7526,1.7521,1.7552,1.7561,1.7585,1.7591,1.7597,1.7602,1.7596,1.7621,1.7624,1.7626,1.7634,1.7637,1.76,1.76,1.76,1.76,0,1.7456,1.7471,1.7483,1.75,1.751,1.7527,1.7534,1.7543,1.7545,1.755,1.757,1.7581,1.7597,1.7603,1.7605,1.7626,1.7624,1.762,1.7612,1.7629,1.7637,1.764,1.7601,1.7601,1.76,1.76,0,0,1.7482,1.75,1.7505,1.7512,1.7527,1.7539,1.7555,1.757,1.7578,1.7591,1.7604,1.7624,1.7621,1.763,1.7633,1.7643,1.7661,1.7639,1.7639,1.7642,1.7685,1.7687,1.769,1.766,1.7661,1.7661,1.7683,0,1.7505,1.7533,1.7538,1.7563,1.7577,1.7577,1.759,1.7601,1.7607,1.7619,1.7625,1.7639,1.7634,1.764,1.765,1.7657,1.767,1.7655,1.7672,1.7673,1.7668,1.7694,1.7697,1.7717,1.7686,1.7687,1.7687,0,1.7536,1.7548,1.7575,1.7587,1.7593,1.7605,1.7619,1.7631,1.7643,1.7646,1.7656,1.7657,1.7673,1.7665,1.7687,1.7677,1.7684,1.7688,1.7689,1.769,1.7681,1.7696,1.7723,1.7726,1.7692,1.7692,1.7691,0,1.7551,1.7575,1.7593,1.76,1.7615,1.7623,1.763,1.7641,1.765,1.7662,1.7667,1.7681,1.7689,1.7699,1.7704,1.7697,1.7725,1.7717,1.7728,1.7728,1.7733,1.7733,1.7762,1.7739,1.7739,1.7739,1.7739,0,1.7576,1.7592,1.76,1.7612,1.7629,1.7634,1.7651,1.7658,1.7667,1.7679,1.768,1.7692,1.7697,1.771,1.7713,1.773,1.7734,1.7737,1.7737,1.7736,1.7736,1.7741,1.7739,1.7739,1.7739,1.7739,1.7739,0,1.7596,1.7602,1.7623,1.7635,1.7638,1.7651,1.7661,1.7672,1.7677,1.7693,1.7697,1.7705,1.7719,1.7725,1.7743,1.7745,1.7765,1.7764,1.7761,1.7761,1.7771,1.7769,1.7804,1.7808,1.7782,1.7783,1.7783,0,1.7611,1.7624,1.7637,1.7645,1.7652,1.7666,1.7674,1.7679,1.7688,1.7702,1.7711,1.7725,1.7737,1.7759,1.7767,1.778,1.778,1.7791,1.7782,1.778,1.7779,1.7778,1.7779,1.7793,1.7793,1.7793,1.7793,0,1.7638,1.764,1.7653,1.7666,1.7676,1.7687,1.7698,1.7705,1.7711,1.7721,1.7735,1.7744,1.7762,1.7776,1.7789,1.7796,1.7795,1.7796,1.7799,1.7798,1.7795,1.7796,1.7765,1.7795,1.7795,1.7795,1.7795,1.7795,1.7655,1.7666,1.7677,1.7691,1.7699,1.7709,1.7719,1.7726,1.7738,1.7753,1.7755,1.777,1.7781,1.7799,1.7806,1.7817,1.7814,1.7819,1.782,1.7821,1.7821,1.7793,1.782,1.782,1.782,1.782,1.782,0,1.7681,1.7688,1.7701,1.7715,1.7726,1.7725,1.7736,1.7745,1.7759,1.7768,1.778,1.7796,1.7809,1.7817,1.7831,1.7838,1.7839,1.7842,1.7841,1.7842,1.7824,1.7819,1.7841,1.7841,1.7841,1.7841,1.7841,1.7841,1.7696,1.7713,1.7717,1.7738,1.7745,1.776,1.7766,1.7775,1.7783,1.7801,1.7812,1.7817,1.7826,1.784,1.7852,1.7854,1.7859,1.7862,1.7864,1.7846,1.7844,1.7842,1.7838,1.7863,1.7863,1.7881,1.7882,1.7882]}]]